Theta_e
353 354 355 356 355 357 357 357 362 365 368 357 356 356 354 365 358 356 359 355 356 350 354 356 347 349 352 356 355 353 353 353 355 351 347 352 349 350 354 351 351 349 350 353 352 353 351 351 350 350 351 351 351 351 351 351 350 350 351 351 352 351 351 351 351 351 351 352 352 351 351 351 351 352 354 354 354 352 351 352 351 351 350 347 347 347 348 349 349 350 351 351 350 349 350 350 350
351 352 353 356 354 359 362 361 365 364 363 352 355 361 356 368 358 355 361 353 354 346 346 348 348 353 353 353 351 354 354 349 350 351 350 351 349 352 354 351 350 348 351 352 351 352 350 350 348 349 349 350 350 350 351 351 350 349 350 350 351 351 351 351 351 351 351 352 351 351 351 351 351 352 353 354 353 352 351 352 352 351 349 346 344 344 345 347 349 349 349 350 350 349 349 350 350
353 354 351 356 357 358 364 366 366 359 356 350 353 368 364 360 357 358 360 352 349 345 347 347 349 351 352 356 354 356 355 347 346 348 349 350 351 354 353 351 348 348 350 351 352 351 350 349 348 349 349 350 351 351 351 350 349 348 349 348 350 351 350 350 351 351 351 351 351 351 351 351 351 351 353 354 353 351 350 352 352 351 349 346 344 343 343 345 347 348 348 349 350 349 349 350 350
355 357 354 357 361 362 369 372 370 360 355 352 349 365 373 359 356 363 358 353 348 344 347 347 348 347 352 357 351 352 352 347 348 348 350 351 352 353 353 350 347 347 350 351 351 349 349 349 349 350 350 351 351 351 350 349 349 348 348 347 349 351 351 351 350 350 352 351 351 351 351 351 351 351 353 354 353 351 351 351 351 351 350 348 345 344 343 342 344 346 347 349 349 349 349 350 351
354 358 357 357 366 368 372 372 370 363 356 358 353 359 370 358 359 365 355 351 346 344 345 344 347 345 349 350 347 352 352 349 349 349 351 351 352 353 352 350 348 350 351 350 349 348 347 349 350 351 352 352 352 352 349 348 349 348 348 348 349 350 351 351 349 349 351 351 351 352 351 351 351 351 352 353 353 351 351 351 351 351 351 350 348 346 343 341 341 342 343 346 348 348 349 350 351
355 358 357 357 365 365 369 366 361 364 362 366 364 360 361 357 364 365 352 348 346 345 345 345 345 345 347 346 347 351 350 349 349 350 350 351 352 352 352 351 351 352 352 349 346 346 347 350 351 352 353 353 353 352 350 350 349 349 348 348 349 349 351 351 351 349 349 351 351 351 351 351 351 351 351 352 352 351 351 351 351 352 351 351 349 346 342 340 339 339 339 341 344 348 350 351 351
356 362 363 361 364 364 368 363 359 368 365 365 367 361 359 360 363 360 351 347 346 345 345 346 343 346 349 347 349 348 348 349 349 349 351 351 351 351 351 352 352 352 351 348 344 344 346 350 351 352 352 351 352 352 351 351 351 350 349 349 349 348 350 352 353 352 351 351 351 352 352 352 352 351 351 351 351 351 351 351 351 351 351 350 346 342 339 337 337 336 337 337 338 345 350 349 349
355 364 369 368 372 371 367 363 363 369 365 360 362 361 362 365 364 357 351 347 347 347 345 345 343 349 350 347 351 350 348 348 349 350 351 351 351 351 352 352 352 352 351 347 344 344 346 348 350 351 351 352 352 352 352 351 351 350 349 350 349 348 351 352 352 353 353 352 351 352 352 352 353 353 352 351 351 351 351 351 351 349 350 349 344 340 336 333 332 331 333 334 335 343 348 347 348
357 364 369 371 376 368 362 365 363 365 368 362 359 364 366 367 368 358 352 351 349 348 348 346 345 351 351 350 352 349 347 348 349 351 350 350 351 352 353 353 352 352 350 346 346 347 346 347 349 350 352 353 353 353 352 351 350 350 351 351 350 350 351 352 352 353 353 352 351 352 353 352 353 353 353 351 351 352 352 351 350 349 349 348 344 341 338 332 329 326 329 332 334 341 347 346 347
362 365 367 374 374 359 355 362 363 364 368 363 361 369 371 365 364 357 354 354 349 349 348 345 346 350 351 351 352 350 348 349 349 350 350 351 350 352 353 352 352 351 348 347 349 348 348 350 350 351 353 354 353 353 352 351 350 350 351 350 350 351 351 351 353 353 352 352 351 351 352 353 352 353 352 351 350 350 351 351 350 350 349 348 345 340 335 329 326 324 325 329 332 338 344 346 347
369 367 366 373 368 356 353 359 367 371 365 359 361 367 371 367 362 356 355 354 349 349 346 345 347 348 349 351 352 350 349 348 349 350 350 350 350 352 353 353 352 349 347 348 349 348 351 351 351 352 352 353 353 353 353 351 350 350 351 350 350 350 350 351 352 352 352 351 351 351 351 352 352 352 352 350 349 350 350 350 350 350 350 347 342 335 330 327 325 325 324 327 330 334 342 346 348
372 372 372 372 364 360 360 361 367 369 366 363 364 367 370 368 362 354 354 353 347 348 346 346 347 346 350 351 352 350 348 349 349 350 351 351 351 352 353 353 352 348 347 349 349 350 351 351 350 350 352 353 353 353 352 351 351 350 350 350 350 349 349 351 352 352 352 351 350 350 351 352 351 351 351 349 348 349 349 349 350 349 347 342 337 332 330 328 326 325 325 327 330 334 343 346 347
373 373 377 372 364 367 365 363 364 365 370 369 367 372 373 368 367 359 352 351 348 348 347 346 344 345 350 351 351 348 348 349 349 351 352 352 352 353 353 353 352 348 348 349 349 351 351 350 350 350 352 353 353 353 352 351 350 350 350 350 351 349 349 351 352 353 352 351 349 349 350 350 350 351 350 348 347 347 348 348 346 344 341 337 335 333 331 328 327 326 325 326 330 337 343 346 346
371 369 374 373 365 365 365 363 363 362 366 369 366 371 371 365 370 365 354 351 352 349 345 343 342 345 349 351 352 349 349 349 350 352 352 353 353 353 353 353 352 349 348 349 350 351 351 351 352 352 352 351 351 353 353 351 349 350 350 350 351 349 348 350 352 352 352 351 350 349 348 348 349 350 350 349 348 347 347 346 343 339 338 337 335 334 332 329 327 327 326 326 330 338 343 344 345
368 369 374 377 365 359 365 366 366 363 362 368 368 368 368 364 367 364 359 356 351 345 342 343 342 347 349 352 354 350 349 350 351 352 352 353 353 354 354 353 353 350 348 348 350 350 351 352 352 353 351 350 350 351 353 352 350 350 350 351 351 349 349 350 351 352 351 351 351 349 348 347 349 350 350 349 349 348 346 344 341 338 337 337 337 336 334 330 328 327 326 326 329 336 341 343 344
367 371 377 377 364 357 364 367 367 363 363 370 369 367 364 366 367 359 361 358 345 342 343 344 342 346 346 348 351 349 348 350 351 352 352 353 353 353 354 353 352 351 349 348 348 349 351 351 352 352 351 349 349 349 352 352 351 350 350 351 351 350 349 349 351 352 352 352 352 351 349 349 351 351 350 350 349 347 344 342 339 337 336 337 338 337 336 332 329 327 327 327 330 335 340 343 344
367 373 378 370 364 363 364 366 370 365 364 367 365 369 365 365 368 359 360 354 343 344 344 343 343 344 343 345 348 348 349 350 351 352 352 353 353 352 352 353 353 352 351 350 349 348 349 351 351 351 349 349 348 349 350 350 350 350 350 350 350 349 349 349 351 352 352 353 352 352 350 351 352 352 350 350 348 345 343 341 338 336 336 337 338 338 337 334 330 329 329 332 334 337 340 342 343
372 378 376 365 368 372 368 370 371 367 364 364 366 376 373 364 365 362 361 352 344 345 342 344 344 343 343 346 348 348 349 350 351 352 352 352 351 352 352 352 353 353 353 352 351 349 348 350 350 349 348 348 348 349 349 349 350 351 350 350 350 349 349 350 351 352 352 352 352 351 350 351 352 351 350 348 346 344 343 342 339 337 337 337 338 338 337 335 333 332 333 335 337 339 340 341 341
377 379 375 370 372 372 371 373 370 368 367 366 368 377 374 362 359 361 361 352 346 346 344 345 344 342 344 347 349 348 349 349 350 351 351 351 351 351 351 351 352 353 353 353 352 351 349 349 349 348 348 348 348 348 349 349 350 350 350 350 350 350 349 349 350 351 352 352 351 350 351 351 351 350 349 348 345 344 342 342 341 339 337 337 338 337 337 337 336 336 336 338 339 340 340 341 342
372 372 374 371 370 371 373 376 373 370 368 366 368 369 367 361 357 361 359 351 349 349 346 346 345 343 344 347 349 348 349 349 349 350 351 351 351 351 351 351 352 353 353 353 352 351 350 349 349 348 347 348 348 348 349 349 349 349 349 349 350 349 348 349 350 350 351 351 351 351 351 351 351 350 349 348 346 343 340 341 341 339 337 336 337 336 336 337 339 340 340 342 342 342 342 342 343
369 369 373 368 369 374 371 372 374 370 365 365 369 364 360 360 360 361 358 354 353 351 346 345 345 342 343 347 348 349 349 349 350 350 350 350 350 351 351 351 352 352 352 352 352 351 350 349 349 348 347 348 348 348 348 348 348 348 348 349 350 349 348 349 350 350 350 351 351 350 350 350 350 350 350 347 343 340 339 339 339 337 336 336 338 339 339 339 341 342 343 344 345 346 346 346 345
370 366 370 369 371 374 370 374 375 372 368 364 365 362 359 359 359 360 356 354 354 349 344 343 343 341 342 346 346 347 348 348 350 350 350 350 350 350 350 350 351 352 351 351 351 350 350 350 350 348 348 348 348 348 348 347 348 347 348 349 349 349 348 349 349 349 349 350 351 350 349 348 348 348 347 342 338 338 339 339 337 335 335 336 338 339 340 341 342 343 344 345 346 347 347 348 348
373 367 366 369 371 371 370 375 372 372 376 369 364 361 364 363 358 359 357 356 356 347 343 342 341 341 339 343 345 345 346 346 348 349 349 349 349 350 349 350 351 351 351 351 350 350 350 350 349 349 349 348 348 348 347 347 347 347 347 348 348 348 348 348 349 349 349 350 350 349 347 346 346 343 339 337 336 338 338 338 336 335 335 337 338 340 341 342 343 344 345 346 346 347 347 348 348
376 375 369 370 373 370 368 371 369 373 378 374 368 361 365 372 361 356 356 357 355 345 341 341 339 340 339 340 342 343 345 345 346 348 348 349 349 349 350 350 351 352 352 351 350 349 350 350 349 349 349 349 348 347 346 346 347 347 347 347 347 347 348 348 348 349 349 349 349 348 346 345 343 338 335 336 337 338 340 341 341 341 341 342 343 344 345 346 346 346 346 346 346 347 347 347 347
375 376 370 370 370 366 365 370 372 376 378 374 375 367 366 375 363 355 357 351 345 342 340 340 339 339 339 339 341 344 345 345 346 347 347 348 349 350 350 351 351 352 351 351 351 349 349 350 349 348 349 349 348 347 346 345 346 346 347 347 347 347 348 347 347 348 348 347 347 346 345 343 339 336 339 341 340 341 344 345 346 346 346 346 347 347 346 347 348 347 347 347 347 347 347 346 345
368 369 368 370 368 365 367 374 375 376 377 378 383 378 369 368 361 357 361 349 339 341 340 339 340 339 340 341 343 345 345 345 346 347 347 348 350 350 351 351 351 350 350 351 351 350 349 348 348 348 348 348 348 347 346 345 345 346 346 346 346 347 347 347 346 346 346 345 344 343 342 339 337 340 344 345 345 345 345 346 346 347 347 347 347 347 347 347 348 349 349 348 348 348 348 346 345
366 365 366 367 367 367 368 372 373 371 371 372 381 383 375 372 363 356 358 347 338 340 340 339 340 340 342 343 344 344 343 344 346 348 348 348 350 351 350 350 350 350 351 351 351 350 349 348 348 348 348 347 346 346 346 345 345 345 345 345 345 346 347 346 345 344 343 342 342 341 339 337 339 343 345 347 347 347 346 345 345 345 346 346 346 346 346 347 348 348 349 349 349 349 349 348 346
363 364 368 363 363 368 366 369 371 368 363 360 371 380 376 371 361 361 361 345 339 340 340 341 341 343 345 344 346 345 343 345 347 348 349 350 351 351 351 350 350 351 351 351 351 350 349 348 348 349 348 347 346 346 346 345 345 344 344 344 344 344 346 345 344 341 340 340 341 340 339 340 343 346 347 348 348 346 345 345 345 345 346 346 346 347 347 347 348 348 349 349 348 348 347 347 346
363 367 373 366 368 374 367 367 367 365 362 359 368 373 371 369 361 373 372 345 340 344 341 344 344 345 346 346 348 347 345 346 346 348 349 350 351 351 350 351 351 351 351 351 350 350 349 348 348 349 348 347 345 345 346 345 345 344 343 343 344 344 345 344 341 338 338 339 340 341 341 343 346 347 347 347 347 346 346 346 347 346 346 347 346 347 348 347 346 346 348 348 347 347 347 346 346
367 368 372 369 370 374 367 364 364 365 362 361 368 362 362 372 369 381 381 351 341 347 346 346 346 345 347 347 347 345 346 346 345 347 349 350 351 351 351 351 351 351 350 350 350 350 349 348 347 348 348 347 346 345 345 345 344 344 343 344 344 344 343 341 339 337 338 339 341 342 344 346 347 348 348 349 348 347 348 348 348 348 347 347 347 347 347 347 346 346 348 348 348 348 347 347 344
372 364 370 373 361 361 366 365 364 365 359 357 364 359 359 370 369 377 383 359 343 347 348 346 346 346 347 347 345 344 345 346 346 347 348 350 351 351 351 352 352 351 350 350 350 350 348 348 348 349 349 347 346 345 344 344 344 344 343 344 345 344 342 341 342 342 343 345 347 348 348 348 348 350 351 351 349 349 350 349 348 349 348 347 347 346 346 348 347 347 348 348 349 349 347 347 344
371 354 358 369 357 357 368 363 360 363 359 356 359 360 364 367 364 368 373 360 346 347 347 346 347 346 346 347 346 345 344 345 346 347 348 349 350 351 352 352 352 351 350 351 350 349 348 347 348 349 349 348 347 346 344 344 345 344 343 343 345 345 343 344 346 347 349 351 352 352 351 350 351 352 351 350 349 350 351 350 350 349 348 349 347 345 348 349 347 347 349 349 349 349 348 347 344
365 355 354 363 360 360 366 362 358 359 359 360 361 365 369 368 364 364 367 361 352 350 348 347 348 347 347 346 345 346 345 345 346 347 347 349 350 351 352 352 351 350 351 351 350 349 348 348 348 349 349 348 347 345 344 344 344 344 342 343 345 345 344 346 348 350 351 353 352 353 354 353 353 352 350 350 350 350 352 351 350 350 349 349 348 346 349 349 347 347 348 349 349 349 349 347 345
358 359 357 361 364 361 362 363 360 358 360 363 364 368 371 372 369 365 366 365 355 350 349 348 349 349 349 346 345 346 346 346 346 346 346 348 350 351 352 352 350 351 352 352 350 348 348 348 348 349 350 348 346 345 344 344 345 344 343 343 344 343 343 346 349 350 352 352 353 354 355 353 351 351 350 350 350 350 352 351 351 352 351 348 348 349 351 351 348 347 346 346 347 349 349 347 346
354 355 353 355 363 363 364 366 362 358 360 365 366 367 368 368 367 364 363 364 355 349 353 353 350 351 350 346 346 347 346 345 345 345 346 348 350 350 351 352 351 351 352 351 350 349 348 348 348 351 352 348 346 346 346 346 346 345 344 343 343 342 344 348 350 351 351 352 353 353 353 352 351 351 351 349 349 350 351 351 351 353 353 351 349 351 353 352 350 349 346 345 347 348 347 347 346
357 362 361 357 360 360 365 368 362 360 362 365 366 367 368 364 362 362 363 363 355 352 357 356 352 352 350 347 347 348 348 345 344 346 346 348 349 350 351 351 351 351 351 351 350 350 350 349 349 352 353 350 347 347 347 347 347 347 346 345 344 344 346 349 350 351 351 351 352 353 354 352 351 351 350 349 348 349 351 352 353 355 355 352 351 352 352 351 351 351 348 346 346 347 347 347 346
361 367 363 361 362 360 366 367 362 363 364 365 364 364 368 365 361 360 361 364 358 353 355 354 355 354 350 348 348 349 349 346 344 346 346 347 348 349 350 350 351 351 350 351 351 350 350 350 349 351 352 350 347 348 348 347 347 347 347 346 345 345 346 348 349 350 351 351 351 352 353 351 349 350 349 348 349 351 352 353 354 355 355 354 352 352 351 350 350 351 350 347 346 347 348 348 346
362 365 360 360 362 362 365 363 360 364 365 363 363 363 365 367 364 360 361 363 361 356 352 350 353 355 353 351 350 350 349 345 345 346 346 345 346 348 349 349 350 350 350 350 350 351 350 350 349 350 351 350 348 347 347 347 347 346 346 345 345 345 346 346 347 348 349 351 350 349 350 349 347 349 349 348 349 351 353 353 353 354 355 355 354 353 352 351 350 350 350 348 348 349 350 348 347
359 359 358 359 362 363 362 360 358 362 365 362 361 362 364 368 366 363 363 363 364 362 359 359 355 349 351 351 349 350 348 347 346 346 345 345 346 347 348 348 348 349 349 349 349 350 350 350 350 350 351 350 348 347 347 347 346 346 345 344 345 344 345 345 346 347 348 351 350 347 348 348 346 347 348 349 350 351 353 354 354 354 354 354 354 353 353 352 351 352 350 349 350 351 350 348 348
356 355 356 357 361 362 360 360 358 360 363 362 364 365 368 372 367 366 365 364 368 367 366 372 366 354 354 354 351 350 348 348 347 345 345 345 345 346 346 347 348 348 348 349 349 350 350 350 350 350 350 350 349 348 347 348 347 347 346 346 346 346 345 345 345 347 349 350 349 348 350 350 349 348 347 349 352 352 353 354 354 354 353 353 352 351 351 352 353 354 352 351 351 351 350 347 348
351 356 360 359 361 362 360 360 360 361 359 362 365 360 363 371 367 366 366 364 368 366 363 368 367 363 363 358 352 350 349 348 347 346 346 345 344 345 345 346 347 348 348 349 350 350 350 350 350 350 350 350 350 348 348 349 348 348 348 347 347 348 348 348 348 350 351 351 350 350 353 352 350 350 347 349 354 353 352 353 355 355 353 354 353 351 352 353 355 355 355 353 352 353 352 347 347
346 353 359 360 362 364 362 359 359 358 356 361 363 352 354 366 366 364 364 366 367 362 360 363 365 365 365 363 355 351 349 347 346 346 345 345 345 345 345 346 346 347 348 349 349 350 350 350 351 350 350 349 349 348 348 349 348 348 347 347 347 348 349 350 351 351 351 351 351 352 354 352 351 352 348 349 354 354 353 353 354 354 353 354 355 354 354 354 355 356 355 354 352 354 353 348 348
344 350 354 358 362 363 360 358 356 354 354 361 364 355 352 357 364 364 362 366 366 362 362 361 362 362 364 368 360 351 350 348 346 346 345 345 345 345 345 345 346 347 348 349 348 350 350 350 350 349 348 348 348 348 348 347 348 348 347 346 347 347 348 349 350 351 351 351 351 352 353 352 353 354 350 350 354 353 353 354 354 354 353 354 354 355 355 354 356 357 355 353 353 355 354 351 350
344 352 356 361 365 361 358 357 356 357 357 359 362 359 353 353 361 365 362 363 365 364 363 361 361 360 361 366 359 350 350 349 347 346 346 345 345 346 346 345 346 346 348 349 348 349 351 351 350 348 347 347 348 348 348 347 347 347 347 346 346 347 348 348 349 351 351 351 351 352 353 353 354 355 353 352 353 353 352 352 354 354 353 354 355 354 355 354 356 356 354 354 353 353 354 352 352
345 354 359 360 363 360 360 359 357 358 355 354 358 357 354 353 359 363 361 359 359 362 362 360 360 356 356 359 356 350 349 349 348 346 345 345 345 346 346 345 345 347 348 348 349 349 350 351 350 349 348 348 349 349 349 348 347 347 347 346 346 347 348 348 349 350 351 352 352 353 354 352 352 354 353 352 353 353 352 349 351 354 353 353 354 354 354 355 355 355 355 354 352 351 351 351 351
346 351 357 356 358 359 359 358 355 353 353 353 354 353 352 354 358 360 359 356 355 358 360 359 357 357 358 356 353 349 349 349 348 346 345 344 346 347 346 346 345 346 348 348 349 349 350 351 350 349 349 350 350 350 349 348 347 348 347 346 346 347 348 349 349 350 351 353 353 353 354 352 352 353 353 353 353 353 352 349 347 351 354 354 354 354 355 355 354 355 356 353 351 351 350 350 351
346 350 355 352 357 364 365 365 356 349 350 352 352 352 352 353 356 359 360 360 358 357 358 357 356 361 362 354 349 348 348 350 348 346 345 344 345 347 346 347 346 346 347 348 349 349 350 351 350 349 350 350 349 349 350 348 347 349 348 347 347 347 349 350 350 350 351 353 353 353 354 353 353 353 353 353 353 354 353 349 346 348 354 355 354 354 354 355 353 354 354 351 349 351 351 351 351
340 350 352 348 351 355 356 358 352 346 348 352 353 354 350 349 356 364 366 364 363 363 363 361 356 357 359 352 348 349 346 347 348 347 346 344 345 347 347 347 347 347 347 348 348 349 350 351 350 350 350 350 349 349 350 349 347 348 348 349 349 349 350 351 351 350 351 353 352 351 352 353 353 353 353 353 353 354 355 352 349 348 351 354 355 354 354 354 353 353 353 351 351 351 351 351 350
336 347 345 342 342 340 341 344 346 348 349 351 356 354 350 351 360 368 369 363 361 362 364 364 358 357 359 354 352 354 350 347 348 347 346 346 345 346 347 346 346 347 347 347 349 349 350 351 350 350 350 350 349 349 350 349 347 347 349 350 349 350 350 350 349 349 350 352 351 351 351 352 353 352 352 352 352 353 354 354 353 350 350 353 354 354 354 354 354 354 354 353 353 352 352 352 350
330 336 331 330 335 335 336 342 346 348 349 351 356 353 349 353 359 365 367 363 361 360 360 361 359 360 364 360 357 360 354 349 349 349 347 346 346 345 346 346 346 348 347 347 349 349 350 350 350 350 350 350 350 349 350 349 348 347 349 350 349 349 350 349 348 349 350 350 349 350 351 351 352 352 352 352 352 353 353 353 353 352 351 351 353 355 355 355 354 354 355 354 353 353 354 354 353
328 334 329 324 332 332 329 341 349 348 348 351 351 348 348 351 357 361 362 360 360 360 361 362 362 364 367 365 363 359 353 350 351 353 351 345 345 346 345 346 346 347 348 348 349 350 350 350 350 349 349 351 350 349 350 351 349 348 349 350 349 349 349 348 347 348 350 351 350 351 351 351 351 352 353 352 353 354 353 353 353 352 352 352 354 354 355 355 355 354 355 354 353 354 354 354 353
328 332 327 321 329 332 326 338 350 348 348 349 346 349 354 354 357 361 362 361 360 358 359 363 366 365 364 366 367 359 355 354 350 354 355 348 346 347 346 346 346 346 347 348 350 350 351 351 350 350 349 350 351 350 350 352 350 349 349 349 350 349 348 348 347 347 349 350 350 350 351 352 352 352 352 352 352 353 353 353 353 353 353 353 354 354 355 356 356 355 355 355 354 355 355 355 355
325 322 320 324 331 336 331 334 342 344 344 344 345 352 355 352 355 363 365 365 365 362 360 361 364 365 363 365 365 359 359 358 351 353 358 353 348 346 346 345 345 346 346 348 351 350 351 352 351 350 350 350 352 351 350 352 351 350 349 348 349 350 349 350 349 348 348 349 350 351 351 351 353 353 352 351 352 352 353 354 354 353 353 353 354 355 356 357 357 357 356 356 356 356 356 356 357
322 314 319 330 330 338 343 335 334 340 342 343 347 353 351 346 351 362 367 366 367 365 363 360 362 366 365 363 361 358 359 360 356 355 357 354 349 346 347 346 345 346 346 348 351 351 351 352 351 351 351 351 352 351 350 350 350 351 351 349 348 349 350 350 350 350 349 349 350 352 352 351 352 354 353 353 353 352 353 354 354 354 353 353 354 355 356 357 357 357 356 356 356 356 356 356 356
322 318 326 329 322 328 335 329 331 339 343 346 348 349 348 347 352 358 364 367 367 365 364 362 363 364 364 362 361 360 360 361 361 362 361 357 353 350 348 347 346 345 346 349 350 351 351 352 352 351 350 351 352 352 351 351 350 351 353 352 349 349 350 350 350 351 351 351 352 353 354 352 353 354 353 353 354 353 353 353 353 354 354 354 354 355 356 357 357 357 356 356 357 356 356 356 356
326 326 331 331 329 332 331 328 332 339 344 345 344 342 345 354 360 361 365 368 366 364 363 364 363 361 360 358 358 359 359 360 361 365 367 360 355 355 349 345 347 345 345 350 351 351 353 352 353 352 351 352 353 353 353 352 351 351 353 354 353 351 352 352 350 350 351 352 353 353 354 354 354 354 354 353 353 353 353 352 352 354 354 354 354 356 356 356 358 358 356 355 356 357 358 357 357
325 326 327 327 332 334 334 331 328 336 345 345 344 344 349 361 368 367 367 366 364 363 362 363 362 359 358 356 356 356 356 360 363 365 368 362 355 356 351 345 348 347 346 350 351 352 353 353 354 353 352 353 354 354 354 353 352 352 353 354 354 354 354 354 352 351 351 351 351 352 352 353 355 354 354 354 353 353 353 352 352 353 353 354 354 356 357 357 357 358 359 358 357 358 358 358 359
326 328 326 327 331 331 335 334 328 336 346 344 344 347 352 362 367 365 364 362 363 362 360 362 361 359 359 357 358 357 355 359 360 360 365 363 354 353 352 347 348 350 349 350 352 353 353 354 355 355 353 354 355 355 355 354 354 354 354 353 353 354 354 354 354 353 352 351 351 351 350 351 353 354 354 355 354 353 354 353 353 353 353 354 355 356 356 356 357 358 359 359 359 359 359 359 360
Wind_Speed
7 6 5 3 3 3 1 1 1 2 2 3 1 0 1 1 3 7 6 6 2 2 2 3 7 7 5 6 8 5 6 2 3 4 3 4 20 25 16 17 20 19 19 17 15 14 14 14 13 14 14 14 14 13 12 12 12 12 13 13 12 12 12 12 12 13 15 16 16 16 16 17 18 19 19 18 18 18 18 19 19 17 16 17 17 17 18 18 18 17 17 18 19 19 19 19 19
4 2 2 2 2 1 1 1 3 2 3 4 2 0 0 3 2 6 5 7 6 6 7 8 9 8 7 8 7 5 7 6 1 4 3 15 24 19 17 19 20 20 20 18 16 16 15 15 15 15 14 14 14 13 12 12 11 12 13 13 13 12 13 13 12 13 15 16 15 16 17 17 18 19 18 17 18 18 18 18 18 17 16 16 16 16 16 17 17 17 17 17 18 19 19 19 18
3 1 3 4 1 1 0 1 3 2 3 4 1 1 0 1 4 5 6 11 11 10 10 9 8 5 5 6 4 5 3 5 5 7 7 19 18 15 20 18 19 20 20 19 17 17 16 16 16 16 15 14 14 13 13 12 12 12 13 14 13 13 13 13 13 14 15 16 15 16 16 17 17 18 18 16 17 17 18 17 16 16 15 15 15 15 15 16 16 16 16 16 17 18 19 18 18
2 2 3 5 0 2 2 2 2 3 3 3 1 2 2 3 7 6 7 10 10 9 8 7 6 3 6 10 5 6 5 2 6 8 8 14 16 21 22 18 19 19 19 19 18 18 17 17 16 16 15 14 14 14 13 13 14 13 14 14 14 13 13 14 13 14 15 15 15 16 16 16 16 18 17 16 16 17 16 16 16 15 15 14 14 14 14 15 15 16 16 16 17 18 18 18 17
1 2 1 3 1 1 1 2 2 3 3 3 2 2 3 5 7 5 5 8 9 9 9 6 5 4 7 8 3 3 6 5 7 10 11 15 22 26 22 19 20 19 18 17 18 19 18 17 16 15 14 13 14 14 14 14 15 14 14 15 15 14 13 13 13 13 14 15 16 16 16 17 16 16 17 16 16 16 16 15 15 15 14 14 12 12 12 13 14 15 15 15 16 17 17 17 16
1 1 0 1 1 1 1 2 2 2 2 3 2 2 4 5 6 6 5 8 8 10 10 8 7 8 6 4 4 4 6 8 8 11 16 20 25 25 22 21 21 20 17 16 18 18 19 18 15 15 14 13 13 14 15 15 15 15 15 15 14 14 13 13 13 13 14 15 16 16 16 16 16 16 16 16 15 15 15 15 15 14 14 13 12 11 11 12 13 14 14 14 14 15 16 16 16
0 1 1 1 0 0 3 3 2 0 2 3 1 3 4 2 3 8 8 9 10 10 11 9 9 9 6 4 5 6 9 10 11 14 20 24 25 23 22 22 22 21 16 15 17 17 19 18 16 15 14 14 13 14 16 15 15 14 15 15 15 15 14 14 14 14 15 15 15 15 15 15 15 15 15 15 15 14 14 14 14 14 14 13 12 11 9 10 11 12 13 13 13 14 15 16 16
2 1 1 2 1 2 3 2 1 0 2 1 1 3 4 3 3 6 8 7 7 7 10 9 10 10 7 6 5 6 12 14 16 21 25 25 25 23 22 23 23 20 16 16 16 16 17 18 17 16 15 15 14 15 16 16 15 15 15 15 15 15 15 14 15 15 15 15 15 15 15 15 14 14 15 15 15 14 14 14 14 14 14 13 13 11 9 9 10 11 12 13 13 14 14 15 16
3 1 0 2 2 3 3 2 1 1 2 2 2 3 2 1 4 4 8 7 7 8 10 7 9 11 7 9 7 5 12 19 24 26 25 25 25 23 22 22 21 20 17 16 16 15 16 17 17 16 15 14 14 15 15 15 15 15 15 15 16 15 15 15 15 15 15 15 15 15 15 14 14 13 14 14 13 13 13 14 14 14 14 13 13 11 9 8 9 11 12 13 13 13 13 14 15
2 1 1 2 2 4 3 2 1 1 2 4 2 4 1 1 2 6 10 9 9 9 9 8 11 13 10 9 6 4 13 23 26 24 23 25 25 23 21 20 19 18 18 18 18 16 15 16 16 15 14 14 14 15 14 15 15 16 16 16 16 16 16 15 15 14 15 15 15 15 15 14 14 13 13 13 12 12 12 13 13 14 14 13 12 11 9 8 9 11 13 13 13 13 13 13 14
1 1 1 2 3 3 2 1 2 2 3 5 3 4 1 1 1 8 12 10 10 12 12 10 12 13 11 8 3 8 20 25 24 23 23 26 25 22 20 19 17 17 20 20 19 17 16 15 14 15 14 14 14 14 14 14 15 16 15 15 15 15 16 16 15 14 15 15 15 15 15 14 14 13 12 12 12 11 11 12 12 13 13 13 13 11 10 9 10 12 13 14 14 14 13 13 13
1 2 1 3 2 2 2 2 1 3 4 4 1 5 1 1 0 9 13 11 12 13 10 7 10 10 10 5 2 11 21 21 22 23 23 25 24 22 20 19 17 17 20 20 19 19 17 15 15 15 14 14 14 14 13 14 15 16 16 15 15 15 16 16 15 15 15 15 15 15 14 14 14 13 11 11 11 10 10 10 11 12 13 14 13 12 11 10 10 12 13 15 15 15 14 14 13
1 1 2 3 1 1 2 3 1 3 3 4 3 5 1 2 1 7 11 12 13 11 7 8 11 9 9 5 4 10 15 19 22 22 23 23 22 21 20 18 17 17 19 19 20 19 17 16 15 15 15 14 14 14 13 14 14 15 16 15 15 14 16 17 15 15 15 15 15 15 14 14 13 12 11 11 10 9 9 9 11 12 14 13 13 12 11 10 10 11 12 14 15 16 15 14 13
1 0 2 2 2 2 2 2 1 2 1 5 4 5 0 2 3 5 9 12 9 9 11 12 13 10 9 8 5 6 11 20 23 22 22 22 22 22 21 20 17 17 18 19 19 19 19 17 16 16 16 16 15 14 14 14 14 15 16 15 15 15 16 17 16 15 15 15 15 14 14 14 13 12 11 10 9 9 9 9 11 13 13 13 12 12 11 9 9 10 11 13 15 16 16 14 12
1 1 2 2 2 2 1 1 1 1 2 5 3 5 1 0 2 5 8 10 6 10 14 13 11 9 11 11 7 8 15 23 23 23 23 22 22 22 21 21 18 16 17 18 19 19 19 18 18 16 17 18 17 16 15 14 14 15 16 15 15 15 15 16 15 15 15 15 14 14 14 14 13 12 11 10 9 8 9 10 11 12 12 12 12 11 10 9 9 9 9 12 14 15 15 13 12
1 2 2 2 2 3 1 1 2 1 3 4 3 4 1 3 0 4 4 8 9 11 12 10 7 7 13 12 11 17 23 25 24 24 23 21 21 21 21 20 18 16 17 17 18 18 19 19 19 17 17 18 17 18 16 15 15 15 15 15 15 15 15 15 16 15 14 14 13 13 14 13 12 11 10 9 8 8 9 10 11 11 11 11 11 11 10 9 9 8 8 11 13 15 14 13 13
1 2 2 2 2 2 3 3 3 2 3 4 4 3 3 3 2 1 1 9 13 11 9 7 5 7 12 14 20 27 27 26 26 25 22 20 19 19 19 19 18 17 17 17 16 18 19 19 18 17 17 17 18 18 17 16 16 15 15 15 15 15 15 16 16 15 14 13 13 13 14 13 12 10 10 9 8 9 9 10 10 10 10 10 11 10 11 11 10 9 8 9 11 13 13 14 13
1 2 2 2 2 2 3 4 3 2 2 4 2 2 4 1 3 2 3 8 11 10 8 8 8 10 15 23 30 29 28 28 26 24 21 18 17 17 17 18 18 18 19 18 16 18 19 19 17 17 17 17 18 18 17 17 16 16 16 15 16 16 16 16 16 16 16 14 13 14 15 14 12 11 10 9 9 9 9 9 9 9 9 9 10 10 11 11 11 10 9 8 8 9 10 11 12
1 2 2 1 3 2 2 4 2 3 3 3 2 3 4 2 1 2 5 8 11 12 9 10 13 12 18 27 30 27 28 27 25 24 21 18 17 17 17 17 17 18 20 19 18 19 19 19 17 17 17 17 18 19 18 18 18 19 18 17 17 17 18 18 18 18 17 16 15 15 15 14 13 11 9 9 9 9 9 8 8 8 8 9 9 9 10 11 11 11 10 8 6 6 7 7 8
1 2 2 1 3 2 3 4 3 5 3 4 4 2 2 3 1 3 6 9 12 12 10 12 14 14 17 21 25 26 26 25 24 24 21 19 18 19 19 17 18 20 20 19 19 19 19 19 17 17 17 18 19 19 19 19 19 19 20 19 18 17 18 19 19 19 18 16 16 16 15 14 12 10 9 8 9 9 9 9 9 9 8 8 9 9 10 10 11 11 10 9 6 4 4 4 5
1 3 2 3 2 1 2 2 3 5 4 5 4 2 2 4 1 3 8 10 7 9 11 14 17 16 18 19 22 25 24 23 23 21 20 19 17 18 18 18 20 21 20 19 20 20 19 18 17 17 18 19 19 18 18 18 18 19 21 20 19 18 18 19 19 18 18 16 16 16 15 13 12 11 10 9 9 9 9 10 10 10 9 9 9 8 8 8 8 8 8 7 6 5 4 4 4
2 2 3 3 1 1 1 1 2 2 3 4 6 4 3 2 1 4 11 10 5 8 11 14 16 15 18 20 20 21 20 20 20 20 20 18 17 17 17 18 19 20 20 19 20 20 20 18 18 19 18 18 18 18 18 18 18 19 21 21 20 19 19 19 19 17 17 16 15 14 14 13 12 12 11 9 9 10 10 10 10 10 9 8 7 6 6 5 5 4 4 5 5 6 6 6 6
1 1 2 2 0 1 3 2 2 3 5 3 4 3 1 3 2 3 9 9 7 11 14 14 14 14 18 19 17 15 14 15 19 21 21 20 19 18 18 19 19 21 20 20 20 19 19 19 19 19 18 17 17 17 18 19 19 20 21 20 20 20 19 19 19 17 16 15 14 13 13 12 11 12 12 11 11 11 10 10 9 8 8 6 5 4 3 3 4 4 5 6 7 9 9 8 8
3 0 1 1 2 2 3 3 4 5 6 2 3 2 1 5 2 1 4 7 9 13 15 14 15 16 17 15 13 13 13 14 17 22 23 21 20 19 20 20 21 22 20 20 19 19 19 20 20 19 18 17 16 17 18 19 20 21 20 19 19 19 20 19 18 17 16 14 13 12 12 12 12 13 14 13 12 11 11 9 8 7 6 5 3 4 4 5 7 8 9 9 9 9 9 8 9
2 1 3 1 3 2 4 4 6 6 4 3 2 2 3 5 3 1 3 9 14 14 15 15 15 15 13 12 11 11 12 12 15 21 21 18 21 21 20 20 21 21 21 20 19 18 19 20 20 19 18 16 16 16 17 18 19 20 20 20 20 19 19 19 18 16 14 13 12 13 13 13 14 15 15 14 12 11 10 7 6 5 4 3 4 6 6 7 8 9 9 9 8 7 7 7 7
4 4 4 1 3 2 4 4 6 5 3 4 3 4 2 1 3 2 2 10 16 15 15 15 14 13 11 10 10 10 10 11 16 20 19 19 22 20 19 19 19 20 20 19 19 18 19 19 19 18 17 16 15 16 17 18 18 19 20 20 19 19 18 17 16 14 13 13 13 13 14 15 16 15 13 11 9 8 7 5 4 3 3 3 5 6 5 6 6 6 6 5 4 4 4 4 7
4 5 4 3 4 2 3 4 5 4 4 7 4 3 5 4 3 3 2 10 15 14 14 13 13 11 10 9 9 10 10 13 18 20 19 19 20 19 18 18 17 18 19 19 18 18 19 19 19 18 16 16 16 17 17 17 18 18 18 19 19 18 17 16 15 14 13 14 14 15 15 15 14 12 10 7 5 4 5 5 4 5 4 3 5 5 3 6 6 5 5 3 3 4 6 6 6
8 7 5 5 4 2 4 4 5 4 5 9 6 3 5 4 3 4 4 10 13 13 13 12 11 9 9 9 8 7 9 16 21 20 18 18 19 20 19 18 18 19 19 19 18 18 19 19 19 18 17 17 18 18 18 18 18 18 17 18 18 18 17 15 15 15 15 15 15 15 14 13 11 7 6 4 5 6 6 6 6 6 5 4 4 4 3 4 5 5 4 3 4 5 7 7 5
6 4 4 2 3 3 4 4 4 4 2 3 4 4 4 3 2 4 2 8 11 12 13 10 9 9 8 8 5 6 11 18 19 19 19 20 21 21 20 19 19 19 20 19 17 18 18 19 19 19 18 18 18 19 18 18 18 17 18 18 18 17 17 16 15 16 16 16 15 13 13 11 7 4 3 4 6 7 8 9 8 7 5 3 2 3 3 3 3 3 3 4 5 6 8 7 7
2 3 4 1 3 3 4 2 3 4 0 3 2 2 3 5 4 5 2 6 11 11 10 8 8 8 7 6 5 7 12 16 16 18 22 22 22 22 21 20 19 19 20 19 18 17 17 18 19 19 19 19 18 18 18 19 18 18 19 18 18 17 17 16 16 16 15 14 12 10 10 8 6 5 4 4 6 7 7 8 7 6 5 4 3 4 4 4 4 4 4 5 6 7 9 9 10
2 2 2 2 2 1 3 2 4 4 3 2 4 2 5 5 6 6 3 4 11 10 8 9 8 6 6 5 7 9 10 14 16 20 23 23 23 23 23 21 19 20 20 20 18 17 17 18 19 19 19 18 18 18 18 19 19 19 19 19 18 18 17 17 16 15 14 11 9 8 7 7 7 7 6 5 7 6 5 5 6 7 6 5 4 4 3 3 4 4 5 5 5 7 8 10 12
1 1 2 2 2 1 2 2 4 2 3 2 3 3 4 5 6 7 4 3 9 8 8 10 8 6 7 6 7 8 8 14 18 20 21 23 24 24 24 22 20 21 20 20 19 18 18 18 19 19 18 17 17 18 19 19 18 18 19 19 19 18 18 17 15 14 13 10 8 7 7 8 8 8 8 8 7 5 4 6 8 7 6 4 3 5 4 4 3 2 4 4 6 7 9 11 13
1 2 2 2 2 1 1 3 3 3 2 2 1 3 2 4 4 6 4 3 8 7 8 10 8 6 7 7 7 6 7 11 14 17 20 24 26 25 25 24 23 22 20 20 21 20 19 19 19 19 18 17 18 19 19 19 19 19 20 19 18 18 18 17 15 14 12 10 8 9 9 10 10 10 11 9 6 5 6 7 7 6 7 6 4 4 3 3 2 2 1 3 6 7 9 11 12
2 1 2 2 3 2 1 4 4 2 1 1 2 2 3 4 4 5 5 3 8 8 8 9 8 7 7 7 7 6 8 9 8 14 20 24 27 26 26 26 25 24 21 20 21 22 20 19 20 19 17 18 19 20 20 20 19 19 20 19 18 18 18 16 15 14 13 11 9 10 12 12 12 11 11 9 6 6 7 7 6 6 7 8 6 4 1 1 1 2 1 2 4 6 8 11 11
4 3 2 2 2 3 3 3 5 4 1 3 3 1 3 5 6 4 5 1 7 7 6 6 6 7 7 8 7 6 8 7 9 15 21 26 28 27 26 26 26 24 22 22 22 22 21 20 20 19 18 19 21 20 21 21 20 19 19 19 18 18 18 17 16 14 12 12 11 12 12 12 12 11 10 9 7 8 8 8 7 6 7 8 6 3 1 1 1 1 1 1 1 4 7 10 10
8 5 4 4 2 2 3 3 4 7 4 3 4 1 1 6 8 4 5 2 5 6 6 5 5 5 6 7 6 7 7 6 11 18 22 28 28 27 27 26 26 25 23 22 21 21 21 20 21 20 19 20 21 20 20 21 21 20 19 20 20 20 20 20 18 15 14 14 13 13 12 11 12 11 10 10 9 9 9 8 8 7 7 7 6 4 1 1 1 0 1 1 1 2 6 8 8
8 5 4 5 4 1 1 4 1 4 4 2 2 3 3 6 8 5 5 4 3 6 8 6 4 3 4 7 7 7 7 6 14 20 22 27 27 27 28 27 26 25 24 23 21 22 21 21 22 21 20 20 20 21 20 20 21 21 20 21 22 23 22 21 19 17 16 16 14 13 12 11 12 11 11 10 9 10 9 8 8 7 7 5 6 5 2 2 2 1 0 1 1 2 5 8 7
7 5 5 3 3 1 3 4 1 2 3 1 2 3 4 5 6 5 4 4 3 3 9 7 6 3 2 5 8 9 7 8 13 16 19 23 25 27 28 26 26 26 26 24 23 23 22 22 23 21 20 20 20 20 20 19 18 19 20 21 22 22 22 22 20 18 18 18 14 13 13 12 12 12 11 10 9 9 9 8 8 7 6 6 5 5 4 4 3 2 2 1 1 3 4 7 7
5 4 5 3 2 2 4 5 2 2 2 2 3 4 3 4 5 5 4 2 2 1 5 6 7 8 5 6 8 9 8 9 11 11 15 20 24 28 27 25 27 27 26 26 25 24 23 23 23 22 21 20 20 19 19 17 16 17 18 18 19 19 19 19 18 19 20 18 13 12 13 12 12 12 11 10 9 10 9 8 8 6 6 6 6 5 4 4 3 2 2 2 2 3 3 4 5
4 4 5 3 4 3 2 3 4 2 2 3 4 2 2 3 3 5 4 2 3 1 2 2 5 8 8 5 5 9 11 10 11 11 12 18 23 25 24 24 27 26 25 26 26 25 24 25 24 23 22 21 20 19 18 16 15 15 15 14 15 16 17 18 19 21 21 17 13 13 12 12 11 11 12 11 10 10 9 9 8 6 5 6 6 6 5 4 3 2 1 2 2 2 2 2 4
4 5 5 5 6 3 3 6 5 3 3 3 5 3 3 2 3 5 2 1 2 3 2 2 3 5 5 4 4 9 12 11 12 12 11 16 20 21 22 26 26 25 25 27 28 26 25 26 25 24 24 22 22 21 19 16 15 16 15 15 15 15 17 19 22 22 20 16 14 13 12 12 12 11 11 12 11 9 8 8 7 5 5 6 6 5 5 5 3 2 1 2 2 1 1 1 2
3 4 6 10 9 6 9 10 5 2 1 2 5 3 3 3 4 6 3 1 3 2 2 3 4 3 4 5 4 7 10 11 12 13 12 15 19 20 23 26 26 24 26 28 28 27 26 27 24 23 24 23 22 23 21 18 18 19 17 18 19 17 18 19 21 21 19 17 14 13 12 11 11 10 10 11 10 8 8 7 6 6 6 6 5 5 5 4 2 2 2 2 2 1 1 1 1
3 5 7 11 10 11 14 12 5 1 1 2 3 4 2 2 4 7 5 3 5 3 3 4 4 4 4 5 5 6 9 10 11 12 13 15 18 20 22 25 26 25 26 28 28 26 26 27 24 22 25 25 23 22 21 18 20 19 17 19 20 18 17 17 18 18 17 17 15 13 12 11 11 9 9 9 7 7 7 7 6 6 7 6 5 4 4 3 2 2 4 3 2 1 1 1 1
3 6 11 12 11 13 14 10 4 2 3 3 2 2 1 2 4 7 6 5 6 6 5 5 5 5 5 4 5 8 10 10 11 12 13 15 18 21 23 25 26 26 27 27 27 26 27 28 25 22 25 26 23 21 19 19 20 19 17 20 20 18 18 17 17 17 16 16 15 14 12 11 11 10 9 8 7 7 7 7 7 7 7 7 5 5 5 4 3 4 5 4 3 3 2 1 2
5 11 15 11 11 13 11 7 3 3 4 3 3 2 1 3 4 4 7 7 8 9 9 7 7 7 6 5 5 8 11 12 12 13 14 16 20 23 26 27 26 27 28 28 27 27 28 28 25 24 25 25 23 22 20 20 20 19 19 21 21 19 18 17 18 18 17 17 16 14 13 12 12 11 10 10 8 7 7 7 8 8 8 7 6 5 6 5 4 5 5 4 4 4 3 2 1
4 12 12 8 7 7 5 4 3 3 2 1 6 5 2 3 3 3 6 7 9 9 8 8 8 5 2 3 3 6 10 11 11 12 15 19 23 26 27 28 27 27 28 28 27 28 29 29 26 25 26 25 24 22 21 20 19 18 21 24 23 20 19 18 18 19 19 19 18 15 13 13 13 12 11 11 9 8 7 8 9 10 9 8 7 6 5 5 6 6 6 5 5 5 4 3 2
10 11 8 7 5 3 3 2 3 3 2 2 7 9 5 1 3 4 4 4 6 8 7 8 8 3 0 8 8 6 9 11 10 11 15 21 24 27 28 28 27 27 29 28 27 29 30 30 28 28 27 25 25 22 20 21 20 17 20 23 22 21 20 18 19 21 21 21 20 17 15 15 14 13 12 11 11 9 8 8 8 9 9 8 8 7 6 6 6 6 6 5 6 6 4 4 4
11 7 6 5 3 3 3 3 3 2 3 4 5 8 5 1 3 3 4 3 3 6 6 7 7 6 6 10 5 2 6 11 12 10 13 17 20 24 26 27 27 27 28 28 29 30 31 31 30 29 28 26 26 23 20 21 21 19 19 20 20 20 19 18 19 20 22 23 21 18 17 16 15 15 14 13 12 12 10 10 9 9 11 10 9 8 7 6 7 7 6 5 6 6 5 5 5
6 6 6 5 2 1 1 2 1 1 3 3 4 7 4 3 4 3 5 5 4 6 5 4 4 6 5 4 3 4 5 6 11 11 12 12 14 19 24 25 26 28 28 28 30 31 31 31 31 30 29 28 27 25 23 22 23 22 20 19 18 19 18 18 17 17 20 23 21 18 18 17 17 16 15 15 14 13 12 12 10 10 12 12 10 9 8 8 9 9 8 6 7 7 6 5 5
5 6 6 4 3 2 3 2 1 2 3 2 2 5 2 3 3 3 4 4 3 4 4 4 3 6 6 4 4 2 5 6 6 8 11 12 14 19 23 25 26 27 28 29 31 33 32 31 32 31 29 29 29 27 25 24 24 24 22 19 19 20 19 18 17 15 17 20 19 18 17 17 17 17 16 15 14 13 13 12 11 11 12 12 11 10 10 10 10 10 9 9 9 8 7 6 6
5 6 5 4 4 4 4 3 2 2 1 1 1 2 3 2 2 4 3 3 1 1 2 4 3 4 5 5 6 4 3 4 4 1 2 7 17 23 23 25 27 28 28 30 31 32 32 32 33 33 30 29 29 28 27 26 26 26 25 21 20 21 20 17 17 17 16 17 17 16 16 16 16 16 16 15 14 14 14 13 12 13 12 12 12 12 12 12 11 11 10 10 10 9 9 8 7
3 2 5 2 5 5 3 3 4 4 2 0 1 2 2 2 1 2 2 3 2 1 1 4 4 3 3 4 6 5 3 2 6 3 3 6 11 23 25 24 26 29 28 29 32 33 32 33 34 34 32 31 30 29 29 27 27 28 27 24 21 20 18 17 18 19 18 17 16 16 17 16 16 16 16 15 15 16 16 15 14 15 14 13 13 13 14 13 13 12 11 11 11 11 10 9 8
2 1 1 4 5 6 4 1 1 4 3 1 1 1 2 1 1 3 3 3 2 1 1 2 2 3 3 3 4 3 4 4 3 2 1 6 7 14 25 26 25 28 30 30 33 35 34 34 35 34 33 31 31 30 29 28 27 28 28 27 24 21 19 18 18 20 19 18 17 16 18 18 17 17 17 16 15 16 17 16 17 17 16 15 15 15 15 15 14 14 14 13 13 12 12 12 10
1 2 4 4 1 4 4 2 1 2 2 2 1 1 2 1 1 3 2 2 2 1 1 0 1 3 5 4 3 4 5 7 3 2 0 3 7 10 16 25 28 29 31 32 34 35 36 36 35 35 33 32 31 30 30 29 28 28 27 27 26 24 21 19 18 19 19 19 18 16 17 18 18 17 18 17 16 17 18 18 19 19 18 16 16 16 16 15 15 16 16 15 14 13 13 13 13
1 3 3 1 1 1 1 2 2 1 1 2 2 1 2 2 3 4 4 5 5 2 1 1 1 1 4 4 5 7 6 7 6 4 0 1 3 10 13 17 27 32 32 34 36 35 34 35 36 36 35 34 32 31 30 29 29 29 27 26 26 25 23 22 20 19 18 18 18 17 16 17 18 17 18 17 17 18 19 19 20 20 19 17 17 16 16 16 16 16 16 17 15 13 13 13 13
3 2 3 3 2 2 1 1 2 3 2 1 1 1 2 3 3 4 6 6 6 4 2 1 2 2 4 4 6 7 7 7 6 5 3 1 2 4 10 14 19 30 33 33 35 35 34 34 34 35 35 33 32 31 30 30 29 29 27 25 25 25 24 23 22 21 20 19 19 19 18 18 18 18 18 18 17 17 18 19 20 19 19 18 17 17 17 17 16 15 15 16 16 15 14 14 12
3 4 4 3 2 1 1 1 1 3 3 1 1 1 4 4 2 2 4 4 5 5 3 2 3 4 4 5 6 7 7 7 7 5 4 1 5 3 6 11 11 21 30 33 33 32 33 33 33 33 33 31 30 30 30 30 29 29 28 26 25 25 24 23 22 21 21 21 21 21 21 20 20 19 19 19 18 18 18 19 19 19 19 19 19 19 19 19 18 17 15 15 15 15 15 14 12
2 3 2 2 2 2 3 2 3 1 3 2 2 1 5 4 1 3 3 4 4 4 4 2 1 2 3 3 3 6 7 7 7 5 3 3 4 5 4 9 10 16 22 28 33 33 30 31 30 30 30 30 30 29 29 29 28 27 27 26 26 26 25 24 23 22 22 22 22 22 21 21 22 21 21 20 20 18 18 20 21 21 21 20 19 20 19 19 19 19 17 16 16 16 16 15 14
Wind_Direction
99 105 120 120 137 154 211 129 66 355 78 77 358 34 99 280 137 140 167 180 196 240 195 125 138 144 141 127 138 108 48 101 170 147 190 166 145 147 153 160 156 152 145 138 142 139 137 140 138 137 135 135 134 132 131 127 127 126 123 122 121 120 118 117 118 119 119 117 117 116 111 111 113 113 109 107 108 109 110 107 106 107 107 107 106 105 105 105 104 103 102 102 102 103 104 104 105
103 120 144 133 155 158 244 136 91 9 56 73 341 330 63 323 122 154 162 135 123 119 102 90 93 90 107 120 131 93 38 358 87 121 108 135 136 142 157 160 155 150 144 143 147 142 139 140 141 141 138 136 133 130 129 127 127 123 122 123 124 122 122 122 123 123 120 120 120 116 113 112 111 111 108 107 109 111 113 110 109 109 108 108 107 105 105 104 105 106 105 103 102 104 105 104 105
111 149 193 186 230 60 111 29 91 57 69 94 357 268 320 28 131 137 121 110 116 118 103 96 86 75 101 92 64 80 68 353 79 105 111 136 135 145 158 157 154 151 146 149 150 143 142 142 143 142 139 137 134 131 128 128 126 121 121 121 121 120 122 123 126 125 120 122 122 117 115 112 111 112 110 107 108 111 113 111 109 108 108 107 107 106 106 106 105 106 106 104 102 105 106 106 106
116 100 183 182 341 13 63 41 107 97 102 124 128 219 229 162 139 126 121 112 116 112 98 98 79 53 93 93 85 81 99 50 88 107 123 145 144 146 153 153 153 149 147 153 151 144 142 144 145 142 140 139 135 132 128 128 126 121 120 120 120 121 124 126 126 124 123 127 123 116 114 112 112 113 112 108 107 111 114 113 110 110 109 108 108 109 110 111 109 108 107 105 103 104 107 106 102
178 67 173 164 89 341 95 71 89 91 139 166 127 206 220 164 138 133 117 100 109 108 101 101 89 100 100 101 119 99 113 112 102 109 120 139 143 145 150 148 144 143 148 153 153 149 145 147 147 143 141 140 137 133 131 131 128 123 122 123 124 124 126 126 126 124 124 127 122 118 116 114 114 114 113 110 110 113 117 117 115 114 113 112 112 113 114 116 115 113 111 108 105 105 108 106 101
227 38 12 102 127 209 82 75 86 87 201 171 134 228 182 158 146 138 105 90 92 97 101 92 100 110 92 66 59 111 138 123 116 120 125 135 144 147 146 141 139 147 154 153 155 155 150 151 148 144 143 141 140 137 135 134 130 127 126 127 129 129 127 124 125 122 121 122 120 119 118 116 115 114 112 112 114 116 118 119 118 118 117 117 117 117 118 118 117 116 115 112 108 106 107 106 103
341 34 24 49 86 29 75 86 108 86 244 163 197 247 125 113 163 125 101 93 84 86 97 97 112 102 82 83 68 107 127 121 128 132 132 138 145 145 143 144 147 153 156 154 157 157 155 154 151 147 146 145 144 141 138 137 135 133 131 130 131 133 130 128 127 125 124 123 122 120 117 117 115 114 114 115 116 118 119 119 120 121 120 120 119 119 119 118 116 118 118 115 111 110 110 107 105
15 43 146 91 43 33 79 69 85 223 274 193 266 286 69 32 286 115 110 107 96 97 101 109 112 90 79 95 87 107 114 121 132 134 134 138 143 143 146 149 149 153 158 158 155 154 156 155 153 150 149 148 147 145 141 141 140 137 134 133 134 135 134 132 131 129 128 128 127 123 119 118 117 117 117 117 118 119 121 121 122 123 122 121 120 119 117 114 113 118 121 118 115 115 113 108 104
12 35 50 88 76 58 74 46 37 232 290 325 340 274 116 116 288 100 112 98 100 106 103 120 104 92 94 89 95 102 105 124 132 134 137 139 144 146 148 152 153 155 158 156 151 152 152 150 150 150 150 150 149 148 145 145 144 140 136 136 136 135 136 135 134 132 130 131 131 127 124 121 120 119 118 117 117 119 121 122 123 124 123 122 120 119 117 112 108 112 120 122 119 119 117 107 105
5 22 26 78 77 70 65 38 348 317 308 321 327 246 184 79 299 101 107 102 108 99 93 101 93 103 114 100 103 110 116 129 133 135 140 143 147 146 150 158 159 157 155 153 151 153 150 149 151 150 150 150 151 149 149 150 148 144 140 140 137 135 136 136 135 134 132 132 134 131 126 124 122 121 120 118 119 122 125 127 127 127 125 122 120 122 121 113 107 107 114 123 124 124 121 111 108
11 337 42 70 50 76 95 56 321 329 323 320 316 265 313 353 268 105 104 106 108 104 109 102 96 110 112 105 99 124 128 132 135 136 140 146 147 146 151 159 160 157 155 153 152 153 153 155 156 154 152 152 152 148 152 154 149 147 143 139 137 137 138 138 137 135 134 133 135 133 128 127 124 122 121 121 124 128 132 134 132 129 126 123 124 125 122 114 108 108 112 123 127 127 126 118 114
53 328 36 77 43 80 131 118 332 333 338 342 286 263 267 136 160 116 118 121 120 120 131 119 116 121 109 109 122 133 134 135 138 137 140 146 147 147 151 157 160 159 156 154 154 154 155 158 157 155 155 155 152 151 157 156 150 148 143 140 138 138 138 139 139 137 137 135 134 133 131 129 125 123 123 125 127 131 135 138 134 128 126 124 125 124 120 115 111 110 115 125 130 131 130 127 123
83 305 62 80 66 72 83 99 48 33 6 315 251 255 138 109 145 138 132 132 136 132 136 131 130 126 113 119 136 142 140 141 141 138 142 144 146 148 153 158 159 160 158 156 156 156 156 157 157 157 158 156 154 155 159 157 152 147 144 143 140 139 138 140 141 141 140 136 133 132 132 131 127 126 125 126 128 131 134 136 132 126 124 122 122 120 117 115 112 112 116 127 134 136 136 136 133
105 311 91 88 84 88 50 65 22 64 164 253 265 286 335 144 182 155 139 138 144 137 133 138 135 119 117 129 143 154 148 147 144 142 143 143 146 148 153 158 158 160 160 160 158 157 158 157 159 162 161 158 157 158 159 159 154 148 146 145 144 143 141 141 143 144 141 134 130 130 131 131 129 128 128 128 130 132 135 135 131 125 122 118 117 114 112 115 115 115 120 130 139 142 142 143 141
137 73 87 95 85 93 46 71 166 69 233 232 272 286 308 162 148 121 145 138 131 138 135 145 143 123 140 153 160 164 154 150 146 143 143 142 145 146 149 155 157 160 163 165 163 161 160 160 165 168 165 161 162 163 161 161 157 151 147 146 146 144 141 141 145 144 138 132 130 131 132 132 131 130 130 131 131 132 136 136 131 123 117 114 113 110 111 115 117 120 125 133 142 146 147 147 147
159 103 65 76 90 106 164 197 140 140 242 219 237 245 73 325 338 106 170 137 132 150 144 155 160 139 152 157 151 153 152 149 145 142 141 140 143 144 148 153 155 157 161 166 166 165 164 164 170 172 170 167 166 165 164 164 161 155 149 147 148 146 142 141 143 141 137 134 133 134 136 135 133 134 133 131 134 136 137 134 127 117 113 112 110 109 111 113 114 119 127 135 143 149 151 150 152
114 79 66 72 105 132 171 178 167 185 222 204 219 208 106 308 301 50 191 129 141 153 139 142 134 124 137 141 144 147 147 144 142 142 140 140 142 144 148 152 155 156 162 167 167 167 169 171 174 174 174 171 166 165 166 166 162 156 152 150 148 146 143 141 142 141 139 138 138 141 141 139 135 137 135 133 136 136 134 129 122 116 113 112 111 112 113 114 114 118 126 135 143 149 154 156 159
95 84 102 102 134 173 182 165 191 219 194 191 202 147 124 251 300 349 44 104 134 131 120 121 105 105 114 129 141 143 143 142 144 144 142 143 145 147 151 156 156 160 165 168 170 170 174 176 176 176 175 172 167 166 166 165 163 158 156 153 148 148 146 145 148 146 143 144 145 147 146 142 137 139 139 138 136 132 129 127 125 124 121 117 116 118 120 120 121 124 130 137 144 150 156 160 164
114 100 91 146 174 187 170 142 187 220 184 166 155 131 127 186 259 45 72 102 122 117 120 119 112 114 114 128 139 141 143 145 149 148 146 150 155 156 157 160 158 161 165 168 172 175 178 179 178 176 173 172 170 169 167 166 168 163 159 156 151 153 152 150 153 149 147 149 149 150 150 144 139 140 140 141 139 135 133 134 136 136 132 126 122 124 126 129 129 133 138 143 151 156 161 163 162
149 114 76 230 215 187 147 128 197 235 210 153 152 135 130 211 235 64 100 107 113 122 135 129 128 132 125 133 140 143 147 150 154 152 151 158 162 163 163 164 162 164 167 170 175 178 182 181 178 175 171 173 173 173 170 170 173 169 162 158 157 157 152 150 153 151 150 151 151 152 153 146 141 141 141 146 148 146 145 147 149 146 142 137 134 136 138 140 141 143 148 152 158 167 177 175 169
135 122 147 241 243 148 140 133 216 238 209 171 150 126 185 225 240 101 117 103 106 132 141 138 141 142 134 139 146 151 155 156 157 154 155 161 164 167 167 167 168 169 167 171 177 180 184 183 177 173 173 174 175 174 173 172 171 168 164 160 159 158 152 152 154 154 153 153 155 155 153 149 146 146 149 154 154 151 152 152 151 150 149 145 142 145 149 151 153 157 162 169 173 187 205 207 205
92 152 169 222 298 43 255 187 201 203 173 160 142 154 205 204 61 137 133 127 152 147 140 141 142 143 139 144 153 157 159 158 159 156 159 164 166 168 167 168 169 169 168 172 178 181 184 182 177 174 174 177 178 176 174 172 168 167 166 162 160 158 156 156 157 159 157 157 159 158 156 154 153 152 151 150 148 148 151 152 151 152 153 151 152 155 160 164 173 190 207 222 229 240 247 243 239
120 217 146 193 215 10 304 349 51 86 82 92 154 208 240 104 76 166 143 147 168 146 139 140 139 141 142 147 156 159 160 163 161 160 164 166 167 168 165 166 167 168 172 175 178 181 182 180 177 175 177 178 178 176 174 171 167 168 169 166 163 160 161 162 162 164 161 163 165 162 161 158 156 149 143 141 141 141 141 144 148 153 158 160 169 182 198 218 239 256 266 272 275 276 274 266 259
118 330 308 213 131 47 339 28 39 64 75 6 247 246 105 112 120 162 125 141 148 138 136 136 138 143 147 154 161 160 163 168 159 156 164 166 166 165 160 162 166 169 171 172 177 180 179 179 178 177 178 178 175 175 176 173 169 169 170 169 166 163 165 168 168 167 166 170 169 166 165 158 154 146 139 137 136 133 132 137 146 159 171 180 205 242 263 274 281 284 284 285 285 285 281 271 266
143 163 245 217 95 32 353 50 41 40 53 321 309 93 131 143 140 81 77 128 135 134 137 139 142 150 159 166 164 158 163 163 145 147 156 155 156 157 155 159 163 168 169 169 176 179 179 179 179 179 178 176 175 176 176 174 171 170 171 170 169 168 170 173 172 172 173 173 167 164 163 158 156 149 142 140 139 137 137 146 159 178 202 219 248 277 289 293 298 297 294 293 289 286 282 264 259
195 169 192 141 77 16 352 40 37 29 13 351 29 35 356 113 114 85 97 134 136 137 143 145 150 159 167 168 160 155 162 153 138 144 146 140 147 151 154 160 162 168 169 170 175 177 178 179 178 178 177 176 178 177 174 173 172 173 174 170 171 173 173 175 174 174 174 167 160 160 161 160 158 153 149 147 149 150 158 175 194 224 250 263 274 291 300 304 314 314 309 315 311 311 323 287 256
143 132 133 79 73 30 6 29 19 22 16 12 37 15 326 332 83 125 160 144 142 142 147 150 154 163 164 159 158 160 159 145 137 142 143 138 145 150 155 161 165 169 169 170 176 176 176 177 176 177 175 174 175 175 173 173 174 175 174 170 173 175 175 176 173 170 167 160 158 161 163 162 158 157 158 162 175 189 200 216 248 263 272 284 290 296 305 310 314 310 305 327 343 341 352 336 281
119 120 94 55 67 25 12 36 11 27 24 3 9 9 323 335 100 167 186 156 149 143 148 154 157 158 153 154 158 154 142 138 139 143 146 145 148 152 157 163 166 169 169 171 175 174 173 174 174 174 172 171 171 172 173 174 175 174 173 173 175 177 177 176 171 166 163 160 162 166 165 162 160 162 175 205 230 232 228 243 258 258 272 288 289 284 284 298 293 284 283 321 345 342 348 345 322
125 110 95 42 54 12 0 46 22 47 69 334 8 20 332 332 179 216 215 154 149 142 148 152 152 148 145 152 145 128 133 139 143 146 150 152 154 156 159 164 166 168 171 172 173 171 171 172 172 171 170 171 171 171 174 174 174 172 172 176 178 178 176 174 168 164 165 164 166 170 168 167 171 190 216 237 243 241 239 249 251 243 253 258 266 259 233 249 273 274 284 336 347 344 349 351 342
110 58 94 70 39 349 335 63 66 62 131 222 120 73 268 284 268 263 327 142 146 141 146 139 140 147 146 148 129 128 140 144 148 151 154 154 155 157 158 163 166 168 172 172 171 171 170 170 169 170 171 173 173 173 175 173 171 172 176 179 178 175 173 170 167 165 166 165 167 171 178 189 207 218 215 212 220 233 240 241 228 210 208 203 234 244 218 243 286 304 321 344 346 343 354 3 358
91 48 48 59 88 280 313 52 88 67 306 259 109 133 230 266 290 289 326 136 148 144 141 136 142 152 143 137 134 140 147 152 157 156 156 154 154 156 157 161 166 169 172 170 171 171 170 170 168 169 173 174 175 176 175 172 171 173 178 180 175 172 172 170 168 166 163 159 163 170 183 195 198 198 188 184 209 225 232 211 176 164 177 194 230 230 233 277 295 323 338 338 334 349 7 19 22
104 150 320 337 126 194 312 42 79 103 269 307 113 166 241 267 281 289 316 129 149 148 142 141 146 152 139 134 142 145 146 153 158 159 156 152 152 156 157 162 167 168 169 170 170 170 171 172 170 170 172 173 174 176 175 173 173 174 176 177 173 173 174 173 170 166 160 155 161 163 168 174 174 181 182 184 204 203 176 169 164 163 177 197 219 218 256 298 285 314 342 334 339 1 8 19 33
255 167 225 261 145 160 332 86 95 151 178 306 241 170 223 269 278 297 307 143 145 146 147 145 147 150 135 137 152 143 140 151 157 160 155 149 152 156 158 163 167 167 168 171 171 170 172 174 173 169 169 171 171 173 173 172 173 173 175 176 177 178 177 176 172 167 164 162 163 163 167 175 180 185 188 196 205 190 170 163 170 181 194 208 216 224 269 304 271 284 316 327 345 359 1 9 25
266 183 210 220 148 149 158 125 137 147 130 198 229 193 211 257 300 315 318 136 146 151 154 153 149 149 137 144 158 141 143 155 157 159 152 146 152 158 160 164 166 167 170 174 173 170 170 173 173 167 167 170 166 167 168 169 172 174 177 180 181 182 180 177 174 173 171 167 171 178 183 187 189 188 188 197 202 191 185 183 189 192 201 214 221 226 271 29 257 273 276 300 338 350 357 4 11
199 203 179 183 134 154 178 148 148 147 127 186 184 256 255 296 314 313 329 75 155 149 136 142 146 150 151 152 157 144 149 160 158 155 145 144 154 159 161 162 162 168 174 177 176 170 168 173 174 169 170 173 166 165 167 169 172 173 177 181 183 185 183 179 177 177 175 177 185 189 191 194 192 190 186 188 191 191 192 191 193 193 203 213 216 216 149 130 221 259 293 290 302 341 353 359 7
184 187 156 153 136 193 183 117 143 150 139 179 166 105 332 298 302 315 337 339 145 129 107 117 146 163 166 154 153 152 149 155 156 151 143 146 156 160 161 161 160 168 175 177 177 173 171 174 176 173 175 177 170 168 170 173 176 176 178 182 186 188 185 182 181 181 183 188 194 192 193 195 191 190 185 181 184 190 192 189 190 195 203 207 205 206 202 210 217 137 6 3 221 323 4 7 11
170 153 137 140 128 234 46 79 95 132 123 187 137 106 182 249 279 309 332 357 97 135 133 141 182 196 182 156 151 155 148 148 153 149 146 150 156 158 161 160 161 166 172 176 180 178 175 176 178 178 179 181 177 174 175 176 178 179 182 186 189 189 188 189 190 192 194 193 197 199 199 196 192 191 187 182 183 186 187 188 190 190 189 197 205 210 217 220 224 216 274 353 283 329 15 22 15
153 134 129 104 107 146 49 82 42 47 106 181 114 130 193 233 264 291 325 26 51 145 141 161 200 174 199 184 158 158 151 143 149 149 150 152 151 155 160 160 163 167 171 177 182 181 179 179 179 179 181 184 181 179 180 179 177 177 180 184 187 189 191 194 195 199 199 196 200 204 201 199 195 194 191 188 189 187 187 190 189 183 180 187 200 209 213 209 213 221 243 280 320 338 9 25 19
129 123 128 108 148 127 65 99 122 48 108 168 156 165 198 238 255 277 295 80 69 339 131 167 197 165 183 211 166 158 154 141 148 154 153 149 147 153 158 162 167 170 170 174 178 179 181 181 180 180 182 185 184 183 181 178 175 174 177 179 183 190 194 197 199 199 197 197 203 204 201 202 199 198 199 197 193 190 191 194 191 182 180 186 191 202 206 191 185 205 261 280 301 327 347 25 29
137 144 133 143 185 158 79 131 132 71 89 137 141 147 261 278 289 286 266 169 137 190 146 178 203 173 174 198 178 164 156 147 152 159 154 148 148 153 156 161 166 168 166 168 173 175 178 180 180 179 180 182 185 185 181 177 178 180 182 185 190 195 199 201 198 194 195 197 200 201 200 205 203 201 202 198 194 193 194 194 192 185 179 177 179 187 189 168 152 161 279 293 285 318 345 45 47
183 166 141 159 181 161 113 138 140 90 80 120 118 80 307 267 269 279 273 136 163 162 159 258 229 184 157 154 185 175 160 155 159 161 157 151 153 155 155 158 163 165 164 167 170 172 176 180 181 181 179 179 183 187 185 183 190 194 188 180 178 175 173 180 183 184 191 194 196 198 201 207 206 202 202 197 194 196 196 191 190 193 183 168 166 170 168 160 153 155 178 289 288 315 1 48 67
185 208 173 162 159 126 117 133 137 74 76 199 142 122 278 238 212 254 275 300 262 171 155 249 244 200 163 149 174 186 171 162 161 161 159 157 156 155 155 158 161 164 167 168 169 172 177 181 184 186 185 182 184 186 187 189 192 194 186 172 168 164 159 167 176 182 189 194 198 199 202 207 205 201 199 195 196 199 197 194 195 201 192 173 166 166 164 166 174 190 207 251 283 301 11 50 84
181 220 160 142 134 123 133 147 145 109 181 206 140 133 246 261 212 232 240 242 258 248 202 233 241 213 192 169 166 186 183 168 160 160 160 160 158 155 157 161 163 166 170 171 170 173 178 181 184 187 186 183 182 183 186 191 192 193 188 178 177 176 173 176 183 188 194 199 203 204 205 206 203 202 200 197 204 206 201 203 206 204 195 182 177 180 184 191 200 221 221 229 267 262 198 104 80
212 185 139 133 134 137 152 160 147 160 137 91 94 123 128 284 236 213 211 229 253 256 242 235 236 228 210 193 178 183 186 176 164 161 163 165 161 160 163 166 167 168 170 172 174 176 178 181 183 184 184 183 184 188 195 197 196 199 197 187 185 188 188 189 192 195 199 204 207 209 212 210 204 207 214 216 221 223 218 214 210 207 200 192 195 202 204 211 224 230 224 227 257 263 231 149 92
209 162 140 140 147 149 158 154 132 150 114 106 209 175 124 270 264 195 183 212 237 239 238 234 230 229 217 203 191 189 187 180 169 164 167 168 165 165 167 169 171 170 171 174 177 180 181 182 183 185 186 188 192 199 204 204 202 206 206 196 190 192 195 194 196 199 201 205 209 211 213 209 205 211 222 223 225 232 232 221 213 214 210 205 216 222 212 222 242 234 228 242 252 246 227 201 156
162 134 122 119 130 133 131 118 113 120 88 179 201 180 163 262 267 175 169 204 225 225 230 234 229 225 255 284 243 197 189 183 174 168 169 170 168 168 169 171 173 174 174 176 179 181 182 183 184 187 191 194 198 201 202 202 199 197 199 199 195 193 194 196 199 202 202 205 210 210 210 208 207 214 221 221 225 234 232 224 218 213 211 215 226 230 222 236 249 236 237 248 233 218 218 221 228
109 105 98 87 80 61 61 54 71 77 355 267 195 182 168 297 265 195 180 209 218 212 214 225 220 163 283 268 257 211 191 183 177 170 169 171 170 169 169 171 174 176 178 179 180 181 183 185 187 189 194 197 199 200 200 200 196 186 184 190 193 191 192 197 201 204 204 206 210 211 210 211 212 216 221 224 229 233 229 223 220 214 211 212 219 223 227 242 245 240 245 247 231 224 226 238 243
104 113 118 94 54 23 27 354 27 80 270 268 192 173 159 230 259 228 221 233 210 207 208 213 203 157 195 239 265 275 218 189 178 172 169 169 168 169 171 173 175 176 178 179 180 181 183 185 187 190 194 198 200 200 200 201 199 190 182 185 190 190 194 201 202 206 208 207 210 213 210 211 215 218 223 229 232 232 228 222 220 217 213 209 213 222 230 235 232 233 238 242 244 240 235 245 246
102 124 126 105 71 5 339 303 297 185 243 246 163 156 166 237 241 241 234 225 210 203 194 201 180 136 176 232 42 3 295 224 188 173 168 170 169 171 172 174 177 176 178 180 180 182 183 185 187 190 193 196 200 201 201 203 203 199 192 190 193 195 201 209 210 212 212 208 210 211 207 210 216 219 223 230 235 235 233 229 224 218 213 212 216 228 238 234 228 232 238 246 251 245 240 250 250
136 143 148 137 125 164 240 243 247 250 249 261 140 153 195 265 246 228 231 241 232 191 176 192 169 132 167 192 131 110 308 286 226 184 173 172 170 174 176 176 178 180 180 180 180 181 183 185 188 190 193 195 199 201 202 204 206 204 199 195 198 202 207 214 216 212 207 207 210 209 207 211 218 222 226 233 238 237 237 237 229 221 219 220 224 234 241 238 236 240 244 252 253 243 242 252 254
179 177 156 153 155 167 211 205 179 205 228 324 354 185 190 220 245 214 213 269 290 173 157 152 146 152 175 171 146 165 247 299 324 348 212 193 177 174 178 178 179 182 182 179 180 181 182 184 188 191 193 195 198 201 202 205 208 205 202 199 203 208 212 218 218 209 202 204 207 210 213 217 221 226 230 235 239 239 240 240 232 225 224 226 230 237 239 237 240 243 242 247 248 242 247 256 257
248 165 105 171 201 164 165 183 164 146 119 211 225 234 200 163 253 243 225 252 241 274 291 125 136 165 165 169 175 180 182 9 356 358 328 293 204 180 178 181 181 183 182 179 180 181 182 184 187 190 194 196 198 200 202 206 208 206 204 204 208 212 215 220 217 211 210 211 211 214 219 223 228 232 233 235 238 240 241 241 237 233 229 228 232 237 240 239 243 246 245 244 242 240 246 253 256
267 55 132 232 196 137 120 128 118 103 106 234 221 287 302 89 339 274 244 228 218 300 305 124 142 155 155 206 199 156 121 92 3 271 173 331 286 202 185 181 182 183 181 180 181 182 184 185 186 189 192 195 198 201 203 206 207 207 207 207 210 214 217 219 216 211 211 213 216 222 225 228 233 237 237 239 239 239 240 241 242 240 236 233 234 237 241 244 247 251 251 249 249 247 250 252 254
116 259 239 251 93 95 101 107 38 62 118 263 275 207 240 142 196 248 228 197 196 266 271 244 305 173 180 206 162 117 127 130 140 248 208 358 303 266 211 186 182 184 183 181 183 184 185 186 187 188 189 193 197 200 203 206 207 207 209 210 210 213 217 219 217 211 209 212 218 225 226 226 230 236 238 240 241 238 237 240 243 242 236 233 235 239 243 247 250 252 251 251 255 257 257 258 256
85 239 239 48 53 340 21 126 159 128 140 283 297 227 218 196 193 199 197 185 168 178 251 31 15 146 160 164 140 139 154 153 159 186 79 57 270 284 263 208 184 182 183 182 182 184 185 186 188 189 191 193 197 200 202 206 208 208 211 214 212 213 216 220 221 216 213 216 221 225 226 226 230 236 237 236 238 239 239 240 241 238 232 232 235 239 243 246 248 250 248 248 253 258 261 262 261
5 355 8 40 150 181 163 159 156 139 159 245 297 314 255 229 209 190 189 180 151 147 152 124 140 141 136 155 162 160 163 158 158 168 156 56 340 290 270 248 201 181 180 180 180 182 184 186 188 190 192 193 194 199 202 205 208 208 211 214 215 215 216 219 223 222 221 222 223 226 229 232 237 239 237 236 237 238 239 238 234 229 227 230 234 237 241 244 245 246 246 246 248 252 257 261 265
4 34 26 24 5 35 95 54 68 119 139 176 132 297 266 249 208 168 162 146 137 146 151 162 178 166 164 182 181 171 165 159 155 156 144 65 346 340 212 236 216 176 173 174 176 181 184 185 188 189 189 190 193 197 201 204 207 208 210 214 216 217 218 219 221 223 224 225 226 227 228 230 234 236 236 237 236 236 239 235 227 227 230 233 235 238 240 242 244 245 245 246 248 250 254 259 267
81 94 65 52 49 66 71 6 316 89 114 155 151 200 266 265 106 99 112 121 142 158 157 167 176 162 171 197 191 166 160 165 162 152 133 106 4 346 171 171 161 153 160 167 171 176 181 184 186 186 187 190 192 195 199 203 206 208 211 214 218 219 220 220 220 222 224 225 229 232 232 231 233 234 236 238 235 236 242 238 230 231 234 235 237 241 242 242 244 246 247 249 251 251 252 254 260